This is the latest recevied weather packets stored in our database for station/object KB1WCR. If no packets are shown the sender has not sent any weather packets the latest 10 day(s).
| Time | Temp. | Humidity | Pressure | Rain* | Wind** | Luminosity | Snow |
|---|---|---|---|---|---|---|---|
| 1788439934 | 16.11° C | 99% | 1016.2 hPa | 0 mm | - | 83 W/m² | - |
| 1788439633 | 16.11° C | 99% | 1016 hPa | 0 mm | - | 58 W/m² | - |
| 1788439328 | 16.11° C | 99% | 1016.2 hPa | 0 mm | - | 63 W/m² | - |
| 1788439027 | 16.11° C | 99% | 1016.1 hPa | 1.27 mm | - | 82 W/m² | - |
| 1788438726 | 16.11° C | 99% | 1016.2 hPa | 1.27 mm | - | 87 W/m² | - |
| 1788438420 | 16.11° C | 99% | 1016.1 hPa | 0 mm | - | 68 W/m² | - |
| 1788438114 | 15.56° C | 99% | 1016.5 hPa | 0 mm | - | 41 W/m² | - |
| 1788437813 | 15.56° C | 99% | 1016.4 hPa | 0 mm | - | 67 W/m² | - |
| 1788437510 | 15.56° C | 99% | 1016.5 hPa | 1.78 mm | - | 59 W/m² | - |
| 1788437209 | 15.56° C | 99% | 1016.6 hPa | 3.05 mm | - | 68 W/m² | - |
| 1788436903 | 15.56° C | 99% | 1016.7 hPa | 1.27 mm | - | 45 W/m² | - |
| 1788436601 | 15.56° C | 99% | 1016.9 hPa | 0 mm | - | 36 W/m² | - |
| 1788436297 | 15.56° C | 99% | 1016.9 hPa | 0 mm | - | 16 W/m² | - |
| 1788435992 | 15.56° C | 99% | 1016.8 hPa | 0 mm | - | 19 W/m² | - |
| 1788435687 | 15.56° C | 99% | 1016.7 hPa | 0 mm | - | 15 W/m² | - |
| 1788435383 | 15.56° C | 99% | 1016.8 hPa | 0 mm | - | 15 W/m² | - |
| 1788435079 | 15.56° C | 99% | 1016.6 hPa | 0 mm | - | 15 W/m² | - |
| 1788434775 | 15.56° C | 99% | 1016.5 hPa | 0 mm | - | 18 W/m² | - |
| 1788434474 | 15.56° C | 99% | 1016.4 hPa | 0 mm | - | 18 W/m² | - |
| 1788434174 | 15.56° C | 99% | 1016.5 hPa | 0 mm | - | 16 W/m² | - |
| 1788433869 | 15.56° C | 99% | 1016.4 hPa | 0 mm | - | 10 W/m² | - |
| 1788433565 | 15.56° C | 99% | 1016.5 hPa | 0 mm | - | 10 W/m² | - |
| 1788433260 | 15.56° C | 99% | 1016.3 hPa | 0 mm | - | 14 W/m² | - |
| 1788432955 | 15.56° C | 99% | 1016.3 hPa | 0 mm | - | 17 W/m² | - |
| 1788432649 | 15.56° C | 99% | 1016.4 hPa | 0 mm | - | 15 W/m² | - |
* Rain latest hour (hover to see other rain measurements)
** Current wind speed in m/s (hover to see current wind gust speed)